Location: Ch�teau-Arnoux
(44.0814°N, 6.0027°E)
Time: 17:07:12
(UTC+00:00)

Lacrosse 5 - Pass Details

Date: 15 November 2019
Orbit: 715 x 724 km, 57.0° (Epoch: 04 December)

Event Time Altitude Azimuth Distance (km) Brightness Sun altitude
Exits shadow 03:05:52 24° 74° (ENE) 1,463 3.9 -36.7°
Drops below altitude 10° 03:08:06 10° 59° (ENE) 2,203 5.0 -36.3°
Sets 03:10:34 0° 53° (NE) 3,126 5.9 -35.8°
